TOMORROW-S1 (60479 NORAD) Tracking and Keplerian Element Data

This shows tracking and keplerian element data for the satellite.

Feedback or suggestion? Click here.




ElementValue
Catalog60479
NameTOMORROW-S1
Epoch Orbit863
Epoch Day286.71650923
Epoch Year2024
RAAN1.3263
Inclination97.434
Eccentricity0.0002283
Argument of Perigee248.8432
Mean Anonmoly111.2558
Mean Motion15.19127591
Decay Rate0.00018437
L11 60479U 24149M 24286.71650923 .00018437 00000+0 87955-3 0 9990
L22 60479 97.4340 1.3263 0002283 248.8432 111.2558 15.19127591 8637



Live tracking and technical data element details for TOMORROW-S1 (NORAD 60479). TOMORROW-S1 can be tracked NOW for your location showing map with azimuth and elevation plus other details from your city location.







IsCatalogInMostPopularTable: catalog: 60479, numindb: 4
Update: records affected: 1



GetName: 60479 TOMORROW-S1

Hit Count: updated at: Wed, 04 Dec 2024 18:23:52 GMT